Location: Marcé
(47.5801°N, 0.3280°W)
Time: 08:51:15
(UTC+01:00)

Vanguard 1 - Pass Details

Date: 05 December 2021
Orbit: 652 x 3830 km, 34.2° (Epoch: 16 January)

Event Time Altitude Azimuth Distance (km) Brightness Sun altitude
Exits shadow 04:35:44 49° 217° (SW) 4,102 12.7 -39.1°
Maximum altitude 04:38:39 51° 197° (SSW) 3,882 12.7 -38.6°
Drops below altitude 10° 04:53:39 10° 127° (SE) 4,984 14.1 -36.1°
Sets 04:56:54 0° 122° (ESE) 5,632 14.6 -35.5°
